Location: Grums
(59.3529°N, 13.1129°E)
Time: 10:40:58
(UTC+02:00)

N. Korean satellite - Pass Details

Date: 22 September 2021
Orbit: 450 x 495 km, 97.3° (Epoch: 21 October)

Event Time Altitude Azimuth Distance (km) Brightness Sun altitude
Rises 05:18:24 0° 27° (NNE) 2,510 11.0 -12.4°
Reaches altitude 10° 05:21:18 10° 54° (NE) 1,637 10.6 -12.1°
Maximum altitude 05:23:10 14° 87° (E) 1,423 10.1 -11.9°
Drops below altitude 10° 05:25:03 10° 119° (ESE) 1,644 9.8 -11.7°
Sets 05:27:58 0° 146° (SE) 2,528 10.4 -11.3°
